Home > Time Zones > World Clock > Weather > Japan > Kyoto > Past weeks

Flag for Japan Weather past 2 weeks in Kyoto, Japan

Now
86 °F

Broken clouds.


Feels Like: 92 °F
Forecast: 74 / 85 °F
Wind: 7 mph from West

Location: Osaka International Airport

Current Time: Aug 1, 2014 at 7:42:22 PM

Latest Report: Aug 1, 2014 at 7:00 PM


Visibility: N/A

Pressure: 29.83 "Hg

Humidity: 62%

Dew point: 72 °F

Location of KyotoLocation

Historic Weather in Kyoto — Graph

°F

Kyoto temperature yesterday

Maximum temperature yesterday: 95 °F (at 1:00 PM)
Minimum temperature yesterday: 79 °F (at 5:00 AM)
Average temperature yesterday: 88 °F

Past Weeks' High & Low Weather Summary

 TemperatureHumidityPressure
High99 °F (Jul 25, 4:00 PM)94% (Jul 27, 1:02 PM)29.98 "Hg (Jul 27, 1:02 PM)
Low70 °F (Jul 28, 5:00 AM)41% (Jul 28, 5:00 PM)29.65 "Hg (Jul 23, 5:00 PM)
Average86 °F64%29.83 "Hg
* Reported Jul 17 6:00 PM — Aug 1 6:00 PM, Kyoto, Weather by CustomWeather, © 2014

Note: Actual official high and low records may vary slightly from our data, if they occured in-between our weather recording intervals... More about our weather records

Advertising

Kyoto weather history for previous 24 hours

 ConditionsComfort  
Time TempWeatherWind HumidityBarometerVisibility
6:00 PM
Aug 1
86 °FPartly sunny.8 mph62%29.80 "HgN/A
5:00 PM90 °FPartly sunny.10 mph52%29.80 "HgN/A
4:00 PM90 °FPartly sunny.12 mph55%29.80 "HgN/A
3:00 PM93 °FPartly sunny.7 mph47%29.80 "HgN/A
2:00 PM91 °FPartly sunny.6 mph52%29.80 "HgN/A
1:00 PM91 °FBroken clouds.2 mph52%29.83 "HgN/A
12:45 PM93 °FPartly sunny.5 mph53%29.83 "HgN/A
12:00 PM90 °FBroken clouds.6 mph55%29.83 "HgN/A
11:00 AM90 °FBroken clouds.3 mph59%29.86 "HgN/A
10:00 AM88 °FPartly sunny.5 mph62%29.86 "HgN/A
9:00 AM88 °FBroken clouds.5 mph62%29.89 "HgN/A
8:00 AM84 °FBroken clouds.6 mph70%29.89 "HgN/A
7:00 AM82 °FBroken clouds.5 mph74%29.89 "HgN/A
6:00 AM81 °FPartly sunny.5 mph79%29.86 "HgN/A
5:00 AM81 °FPassing clouds.6 mph74%29.86 "HgN/A
8:00 PM
Jul 31
84 °FPassing clouds.14 mph70%29.86 "HgN/A
7:00 PM86 °FPartly sunny.12 mph66%29.83 "HgN/A
Weather by CustomWeather, © 2014

See weather overviewHow to use our weather pages